STARLINK-34316, 64707

Orbit data source: Space-Track

STARLINK-34316, 64707 is a payload satellite owned by SpaceX/Seattle (US) in LEO that was launched on Sat, 28 Jun 2025 UTC via an FALCON 9 launch vehicle from the Air Force Western Test Range (AFWTR). Payload-class satellites include a variety of spacecraft equipped with specific instruments for various scientific and technological missions. These include communications satellites like Starlink; space stations such as the ISS; scientific satellites like the Hubble; Earth observation satellites from companies like Planet Labs, Umbra, and HawkEye 360; GPS; miniature CubeSats for education and research; and military/defense satellites.

Loading next visibility...
Identifier
64707, 2025-142M
Orbit
LEO
Country
Flag of USUS
Related business
Manufacturer
SpaceX/Seattle
Mission
Operational Commercial Communications
Bus & Motor
STARLINK V2MO, Unknown motor
Mass
575 kg wet, ~530 kg dry
Launch date (UTC)
2025-06-28 (1 year ago)
Launch vehicle
FALCON 9
Launch site
Air Force Western Test Range (AFWTR)
Object type
Payload
Rocket body
Debris
Shape & HBR
Box + 2 Pan, 17.7 m
Radar Cross Section
36.964 m², Large (>1 m²)

Expand to show TLE details & history
Last TLE update: 5 hours ago

TLE from 5 hours ago
0 STARLINK-34316
1 64707U 25142M   26207.62917180  .00000887  00000-0  82138-4 0  9998
2 64707  70.0025 324.0942 0003399 266.6626  93.4144 14.98329675 60467
Epoch: 2026-07-26T15:06Z
TLE epoch observation values (Epoch: 2026-07-26T15:06:00.443Z)
Latitude
-0.00005°
Longitude
153.26798°
Altitude
574.622 km
Speed
7.574 km/s
True Right ascension
21h 36m 22s
True Declination
0° 00' 00"
Sunlit
Object was in full shadow at epoch
Visualization orbit readout
Latitude
Unknown
Longitude
Unknown
Altitude
Unknown
Speed
Unknown
Apparent Right ascension
Unknown
Apparent Declination
Unknown
Sunlit
N/A
Visualization observer readout
Local Sidereal Time
09:50:17
Azimuth
Unknown
Elevation
Unknown
Doppler factor
Unknown
Orbital elements
Apogee altitude
572.367 km
Perigee altitude
567.643 km
Semi-major axis
6,948.142 km
Eccentricity
0.00034
Inclination
70.0025°
RAAN
324.0942°
Arg. of periapsis
266.6626°
True anomaly
93.45328°
Mean anomaly
93.4144°
Eccentric anomaly
93.43384°
Mean motion
3.74749 °/min
Orbital period
96.06 mins
BSTAR
0.000082138
Loading maneuver chart data...
Computing Atmospheric mass density...
Loading historical data...
Loading historical data...
Loading historical data...
Loading historical data...
Loading historical data...
Loading historical data...
Loading historical data...

Documentation

Showing up to 5 results
|